Weather past 2 weeks in Mamoutzou, Mayotte

Now
88 °F

Passing clouds.


Feels Like: 96 °F
Forecast: 77 / 80 °F
Wind: 9 mph from East

Location: Dzaoudzi / Pamanzi Mayotte

Current Time: Oct 25, 2014 at 12:03:43 PM

Latest Report: Oct 25, 2014 at 11:30 AM


Visibility: N/A

Pressure: 29.95 "Hg

Humidity: 62%

Dew point: 73 °F

Location of MamoutzouLocation

Historic Weather in Mamoutzou — Graph

°F

Mamoutzou temperature yesterday

Maximum temperature yesterday: 88 °F (at 9:30 AM)
Minimum temperature yesterday: 77 °F (at 2:00 AM)
Average temperature yesterday: 82 °F

Past Weeks' High & Low Weather Summary

 TemperatureHumidityPressure
High88 °F (Oct 10, 1:00 PM)94% (Oct 15, 5:00 AM)30.07 "Hg (Oct 15, 5:00 AM)
Low73 °F (Oct 15, 4:30 AM)49% (Oct 14, 1:00 PM)29.83 "Hg (Oct 17, 2:00 AM)
Average80 °F73%29.94 "Hg
* Reported Oct 10 11:00 AM — Oct 25 11:00 AM, Mamoutzou, Weather by CustomWeather, © 2014

Note: Actual official high and low records may vary slightly from our data, if they occured in-between our weather recording intervals... More about our weather records

Advertising

Mamoutzou weather history for previous 24 hours

 ConditionsComfort  
Time TempWeatherWind HumidityBarometerVisibility
11:00 AM
Oct 25
86 °FPassing clouds.10 mph62%29.95 "HgN/A
10:00 AM86 °FPassing clouds.9 mph62%29.95 "HgN/A
9:30 AM88 °FPassing clouds.10 mph59%29.98 "HgN/A
9:00 AM86 °FPassing clouds.9 mph62%29.98 "HgN/A
8:30 AM86 °FPassing clouds.8 mph62%29.98 "HgN/A
8:00 AM86 °FPassing clouds.7 mph62%29.98 "HgN/A
7:30 AM84 °FPassing clouds.7 mph66%29.98 "HgN/A
6:30 AM81 °FScattered clouds.3 mph74%29.95 "HgN/A
6:04 AM79 °FPassing clouds.6 mph79%29.95 "HgN/A
5:30 AM77 °FPassing clouds.3 mph79%29.92 "HgN/A
5:00 AM75 °FPassing clouds.2 mph83%29.92 "HgN/A
4:30 AM75 °FMild.No wind89%29.92 "HgN/A
4:00 AM75 °FPassing clouds.No wind89%29.92 "HgN/A
3:30 AM75 °FPassing clouds.2 mph89%29.92 "HgN/A
3:00 AM73 °FPassing clouds.No wind89%29.89 "HgN/A
2:30 AM75 °FMild.1 mph83%29.89 "HgN/A
2:00 AM75 °FMild.1 mph83%29.89 "HgN/A
1:30 AM75 °FMild.2 mph83%29.89 "HgN/A
1:00 AM75 °FMild.2 mph83%29.89 "HgN/A
12:30 AM75 °FMild.3 mph83%29.92 "HgN/A
12:00 AM75 °FMild.3 mph83%29.92 "HgN/A
11:30 PM
Oct 24
77 °FWarm.2 mph79%29.92 "HgN/A
11:00 PM77 °FWarm.3 mph79%29.92 "HgN/A
10:30 PM79 °FWarm.1 mph74%29.95 "HgN/A
10:00 PM79 °FWarm.5 mph74%29.95 "HgN/A
9:30 PM79 °FWarm.5 mph74%29.95 "HgN/A
9:00 PM79 °FWarm.6 mph74%29.95 "HgN/A
8:30 PM79 °FWarm.6 mph74%29.95 "HgN/A
8:00 PM81 °FWarm.6 mph70%29.95 "HgN/A
7:30 PM81 °FWarm.8 mph74%29.95 "HgN/A
7:00 PM81 °FWarm.7 mph70%29.92 "HgN/A
6:30 PM81 °FWarm.6 mph70%29.92 "HgN/A
6:00 PM81 °FPassing clouds.6 mph70%29.92 "HgN/A
5:30 PM82 °FPassing clouds.7 mph70%29.92 "HgN/A
5:00 PM84 °FPassing clouds.7 mph66%29.92 "HgN/A
4:30 PM84 °FScattered clouds.8 mph66%29.92 "HgN/A
4:00 PM86 °FPassing clouds.7 mph62%29.92 "HgN/A
3:30 PM86 °FPassing clouds.9 mph62%29.89 "HgN/A
3:00 PM88 °FPassing clouds.9 mph59%29.92 "HgN/A
2:35 PM88 °FPassing clouds.10 mph59%29.92 "HgN/A
2:00 PM86 °FPassing clouds.12 mph62%29.92 "HgN/A
1:30 PM86 °FScattered clouds.9 mph62%29.92 "HgN/A
1:00 PM84 °FScattered clouds.9 mph66%29.95 "HgN/A
12:30 PM88 °FScattered clouds.9 mph59%29.95 "HgN/A
12:04 PM88 °FScattered clouds.9 mph59%29.95 "HgN/A
Weather by CustomWeather, © 2014

See weather overviewHow to use our weather pages